Погода в Будве

Черногория     42°17′20″N   18°50′38″E
темп.,
°C
ветер,
м/с
пор.,
м/с
влажн.,
%
обл.,
%
осадки,
мм/ч
давл.,
гПа
погр.,
м
10 апреля, сб
сб1023:00+10с225048 0.0 1027233
02:00+10всв2150100 0.0 1027236
05:00+10в21540 0.0 1026262
08:00+10вюв3257100 0.0 1027340
11:00+11ююв4461100 0.0 1027605
14:00+11ююв32617 0.0 1026434
17:00+11ю2252100 0.0 1025410
20:00+11вюв22544 0.0 1025319
11 апреля, вс
вс1123:00+11вюв33561 0.0 1025365
02:00+11в34585 0.0 1025368
05:00+10в33595 0.0 1024274
08:00+11в33585 0.0 1024258
11:00+12ююв335383 0.0 1025391
14:00+12ююв3359100 0.0 1025350
17:00+12ююв346124 0.0 1024274
20:00+13в346195 0.0 1024183
12 апреля, пн
пн1223:00+13вюв346142 0.0 1024282
02:00+13вюв3361100 0.0 1024309
05:00+12в446089 0.0 1023260
08:00+13в4558100 0.0 1023292
11:00+14ююв456156 0.0 1023390
14:00+13ююв567054 0.0 1023396
17:00+14вюв5766100 0.0 1021418
20:00+14юв5769100 0.0 1021326
13 апреля, вт
вт1323:00+13вюв5763100 0.0 1020467
02:00+13в575988 0.0 1020367
05:00+13в586399 0.0 1019411
08:00+13вюв6971100 0.6 1019763
11:00+12вюв71077100 3.1 1018713
14:00+11всв6880100 7.3 1017373
17:00+12вюв81185100 4.3 1016815
20:00+12всв668535 10.1 1015396
14 апреля, ср
ср1423:00+11всв658018 1.3 1015187
02:00+11юв12755 3.1 1015225
05:00+11в227696 0.9 1015154
08:00+11ссз237572 3.3 1015351
11:00+11з336913 0.4 1016809
14:00+11з657290 1.6 1017764
17:00+11зсз766770 0.6 10171019
20:00+11зсз335870 0.7 10181173